Location: Newark
(37.9128°N, 122.4756°W)
Time: 11:05:32
(UTC+00:00)

X-37B - Pass Details

Date: 12 March 2021
Orbit: 380 x 394 km, 45.0° (Epoch: 07 April)

Event Time Altitude Azimuth Distance (km) Brightness Sun altitude
Rises 02:52:28 0° 224° (SW) 2,255 5.1 -8.5°
Reaches altitude 10° 02:54:36 10° 216° (SW) 1,407 3.9 -8.9°
Maximum altitude 02:57:35 39° 146° (SE) 598 1.2 -9.5°
Enters shadow 02:59:59 14° 80° (E) 1,185 2.4 -9.9°
